Barter Island, AK

9:51 PM AKDT on October 21, 2017 (GMT -0800)
Barter Island LRRS

Weather History for PABA - October, 2012

Change the Weather History Date:

Sunday, October 21, 2012

  Actual Average Record
Temperature  
Mean Temperature 12 °F -  
Max Temperature 9 °F 19 °F 30 °F (2004)
Min Temperature 5 °F 9 °F 0 °F (2008)
Degree Days  
Heating Degree Days 54    
Moisture  
Dew Point 8 °F    
Average Humidity 89    
Maximum Humidity 100    
Minimum Humidity 81    
Precipitation  
Precipitation 0.00 in - - ()
Sea Level Pressure  
Sea Level Pressure 30.48 in    
Wind  
Wind Speed 7 mph (South)    
Max Wind Speed 9 mph    
Max Gust Speed -    
Visibility 10 miles    
Events Snow    
Averages and records for this station are not official NWS values.
T = Trace of Precipitation, MM = Missing Value Source: NWS Daily Summary

Daily Weather History Graph

Daily Weather History Graph

Search for Another Location

Airport or City:

Trip Planner

Search our weather history database for the weather conditions in past years. The results will help you decide how hot, cold, wet, or windy it might be!

Date:

Astronomy

Oct. 21, 2012 Rise Set
Actual Time 9:17 AM AKDT 5:18 PM AKDT
Civil Twilight 8:10 AM AKDT 6:25 PM AKDT
Nautical Twilight 6:59 AM AKDT 7:36 PM AKDT
Astronomical Twilight 5:47 AM AKDT 8:47 PM AKDT
Moon 5:02 PM AKDT (10/21) 10:15 PM AKDT (10/21)
Length of Visible Light 10h 14m
Length of Day
8h 00m
Waxing Crescent, 47% of the Moon is Illuminated
Oct 21
Waxing Crescent
Oct 21
First Quarter
Oct 29
Full
Nov 6
Last Quarter
Nov 13
New

Hourly Weather History & Observations

Time (AKDT) Temp. Windchill Dew Point Humidity Pressure Visibility Wind Dir Wind Speed Gust Speed Precip Events Conditions
12:01 AM 5.0 °F -6.9 °F 3.0 °F 92% 30.53 in 10.0 mi SSW 6.9 mph - N/A   Clear
1:01 AM 6.1 °F -6.8 °F 5.0 °F 95% 30.53 in 10.0 mi SSW 8.1 mph - N/A   Clear
2:01 AM 6.8 °F -5.9 °F 6.8 °F 100% 30.53 in 10.0 mi SSW 8.1 mph - 0.00 in Snow Light Snow
2:07 AM 7.0 °F -4.5 °F 6.1 °F 96% 30.53 in 9.0 mi SSW 6.9 mph - 0.00 in Snow Light Snow
3:01 AM 6.1 °F -6.8 °F 5.0 °F 95% 30.53 in 10.0 mi SSW 8.1 mph - 0.00 in   Clear
4:01 AM 7.0 °F -4.5 °F 5.0 °F 92% 30.53 in 10.0 mi SSW 6.9 mph - N/A   Clear
5:01 AM 7.0 °F -3.3 °F 5.0 °F 92% 30.53 in 10.0 mi SSW 5.8 mph - N/A   Clear
6:01 AM 8.1 °F -4.3 °F 6.1 °F 92% 30.52 in 10.0 mi SSW 8.1 mph - N/A   Clear
7:01 AM 7.0 °F -5.7 °F 5.0 °F 92% 30.52 in 10.0 mi SSW 8.1 mph - N/A   Clear
8:01 AM 9.0 °F -2.2 °F 6.1 °F 88% 30.51 in 10.0 mi SSW 6.9 mph - N/A   Clear
9:01 AM 9.0 °F -4.2 °F 5.0 °F 84% 30.50 in 10.0 mi SSW 9.2 mph - N/A   Clear
10:01 AM 10.0 °F -1.9 °F 6.1 °F 84% 30.49 in 10.0 mi South 8.1 mph - N/A   Clear
11:01 AM 12.0 °F 4.1 °F 8.1 °F 84% 30.49 in 10.0 mi South 4.6 mph - N/A   Clear
12:01 PM 12.9 °F 2.6 °F 10.0 °F 88% 30.48 in 10.0 mi SSW 6.9 mph - N/A   Clear
1:01 PM 16.0 °F 7.4 °F 10.9 °F 81% 30.47 in 10.0 mi South 5.8 mph - N/A   Clear
2:01 PM 18.0 °F 12.7 °F 14.0 °F 84% 30.46 in 10.0 mi SSE 3.5 mph - N/A   Clear
3:01 PM 16.0 °F 10.4 °F 10.9 °F 81% 30.46 in 10.0 mi South 3.5 mph - N/A   Clear
4:01 PM 15.1 °F 6.4 °F 12.0 °F 88% 30.45 in 10.0 mi SSE 5.8 mph - N/A   Clear
5:01 PM 12.0 °F 4.1 °F 9.0 °F 88% 30.44 in 10.0 mi SSE 4.6 mph - N/A   Clear
6:01 PM 12.9 °F - 10.0 °F 88% 30.43 in 10.0 mi Calm Calm - N/A   Clear
7:01 PM 12.9 °F 5.2 °F 10.0 °F 88% 30.43 in 10.0 mi SSE 4.6 mph - N/A   Clear
8:01 PM 12.0 °F 5.9 °F 8.1 °F 84% 30.41 in 10.0 mi SSE 3.5 mph - N/A   Clear
9:01 PM 12.0 °F 4.1 °F 9.0 °F 88% 30.40 in 10.0 mi South 4.6 mph - N/A   Clear
10:01 PM 12.0 °F 4.1 °F 9.0 °F 88% 30.38 in 10.0 mi South 4.6 mph - N/A   Clear
11:01 PM 10.0 °F 1.8 °F 7.0 °F 87% 30.38 in 10.0 mi SSW 4.6 mph - N/A   Clear